Location: Lancaster
(34.6980°N, 118.1360°W)
Time: 06:44:09
(UTC-08:00)

Vanguard 3 - Visible Passes

Search period start: 24 November 2017 00:00
Search period end: 04 December 2017 00:00
Orbit: 510 x 3263 km, 33.3° (Epoch: 23 November)

Date Brightness Start Highest point End Pass type
(mag) Time Alt. Az. Time Alt. Az. Time Alt. Az.
24 Nov 11.3 02:51:28 12° SSW 02:51:28 12° SSW 02:53:34 10° SSW visible
24 Nov 8.6 18:34:04 10° WSW 18:41:46 79° SSE 18:47:37 37° E visible
24 Nov 9.5 20:45:27 10° W 20:52:11 53° W 20:52:11 53° W visible
25 Nov 11.4 01:41:34 12° S 01:41:34 12° S 01:42:31 10° S visible
25 Nov 8.4 17:21:18 10° WSW 17:27:30 62° SSE 17:37:49 12° E visible
25 Nov 8.8 19:32:01 10° W 19:40:49 85° S 19:42:23 72° ESE visible
25 Nov 10.4 21:43:49 10° W 21:46:57 24° W 21:46:57 24° W visible
26 Nov 8.4 18:18:55 10° WSW 18:26:01 81° S 18:32:37 31° E visible
26 Nov 9.2 20:30:08 10° W 20:37:11 59° W 20:37:11 59° W visible
27 Nov 8.2 17:06:09 10° WSW 17:11:52 66° SSE 17:22:11 10° E visible
27 Nov 8.6 19:16:49 10° W 19:24:56 83° S 19:27:25 62° ESE visible
27 Nov 10.2 21:28:25 10° W 21:32:00 27° W 21:32:00 27° W visible
28 Nov 8.2 18:03:48 10° W 18:10:20 82° S 18:17:42 25° E visible
28 Nov 9.0 20:14:52 10° W 20:22:17 65° WSW 20:22:17 65° WSW visible
29 Nov 7.9 16:51:02 10° WSW 16:56:20 70° SSE 17:05:43 10° E visible
29 Nov 8.5 19:01:40 10° W 19:09:09 81° S 19:12:35 51° ESE visible
29 Nov 10.0 21:13:06 10° W 21:17:10 31° W 21:17:10 31° W visible
30 Nov 8.0 17:48:43 10° W 17:54:45 83° S 18:02:57 19° E visible
30 Nov 8.8 19:59:39 10° W 20:07:32 67° SSW 20:07:32 67° SSW visible
30 Nov 10.9 22:11:54 10° W 22:12:07 11° W 22:12:07 11° W visible
01 Dec 8.3 18:46:33 10° W 18:53:26 77° S 18:57:57 40° ESE visible
01 Dec 9.8 20:57:54 10° W 21:02:32 34° WSW 21:02:32 34° WSW visible
02 Dec 7.9 17:33:39 10° W 17:39:14 82° S 17:48:25 13° E visible
02 Dec 8.8 19:44:30 10° W 19:52:15 61° SSW 19:53:01 60° S visible
02 Dec 10.7 21:56:49 10° W 21:57:37 13° W 21:57:37 13° W visible
03 Dec 8.2 18:31:27 10° W 18:37:47 72° S 18:43:34 29° ESE visible
03 Dec 9.7 20:42:47 10° W 20:48:11 36° WSW 20:48:11 36° WSW visible
